Tracking 27122 objects as of 24-Mar-2023
HD Live streaming from Space Station
objects crossing your sky now

NOAA 16 DEB

Track NOAA 16 DEB now!
10-day predictions


NORAD ID: 41366
Int'l Code: 2000-055JK
Perigee: 835.2 km
Apogee: 893.0 km
Inclination: 99.0 °
Period: 102.1 minutes
Semi major axis: 7235 km
RCS: Unknown
Launch date: September 21, 2000
Source: United States (US)
Launch site: AIR FORCE WESTERN TEST RANGE (AFWTR)

Note: This is SATELLITE DEBRIS
Your satellite tracking list
Your tracking list is empty




NASA's NSSDC Master Catalog

Two Line Element Set (TLE):
1 41366U 00055JK  23083.04495637  .00010734  00000-0  59791-2 0  9992
2 41366  98.9536 163.1008 0039984  55.7792 304.7157 14.10700603365721
Source of the keplerian elements: AFSPC